| time (UTC) | temp F | wind direction | speed MPH | gust MPH | rain 1hr in | rain 24hr in | rain mn in | humidity % | barometer mb |
| 20260507054421 | 55 | 170 | 0.0 | 6.0 | 0.00 | 0.07 | 0.04 | 92 | 1013.7 |
| 20260507053407 | 55 | 166 | 2.0 | 12.0 | 0.00 | 0.07 | 0.04 | 92 | 1013.7 |
| 20260507051301 | 55 | 148 | 3.0 | 10.0 | 0.00 | 0.08 | 0.04 | 92 | 1013.6 |
| 20260507050226 | 55 | 141 | 2.0 | 6.0 | 0.00 | 0.08 | 0.04 | 92 | 1013.5 |
| 20260507045231 | 55 | 206 | 4.0 | 9.0 | 0.00 | 0.08 | 0.04 | 92 | 1013.4 |
| 20260507043106 | 54 | 192 | 5.0 | 12.0 | 0.00 | 0.08 | 0.04 | 92 | 1013.1 |
| 20260507042119 | 55 | 165 | 4.0 | 11.0 | 0.00 | 0.08 | 0.04 | 92 | 1013.0 |
| 20260507041111 | 55 | 194 | 5.0 | 11.0 | 0.00 | 0.08 | 0.04 | 92 | 1012.9 |
| 20260507040126 | 55 | 204 | 4.0 | 10.0 | 0.00 | 0.08 | 0.04 | 92 | 1012.9 |
| 20260507035144 | 55 | 175 | 4.0 | 10.0 | 0.00 | 0.08 | 0.04 | 92 | 1012.7 |
| 20260507034110 | 55 | 167 | 5.0 | 10.0 | 0.00 | 0.08 | 0.04 | 92 | 1012.7 |
| 20260507033102 | 55 | 191 | 4.0 | 10.0 | 0.00 | 0.08 | 0.04 | 92 | 1012.7 |
| 20260507032046 | 55 | 173 | 5.0 | 10.0 | 0.00 | 0.08 | 0.04 | 92 | 1012.7 |
| 20260507031035 | 55 | 212 | 5.0 | 9.0 | 0.00 | 0.08 | 0.04 | 92 | 1012.7 |
| 20260507030048 | 55 | 198 | 4.0 | 8.0 | 0.00 | 0.08 | 0.04 | 92 | 1012.8 |
| 20260507023929 | 55 | 216 | 4.0 | 10.0 | 0.00 | 0.11 | 0.04 | 92 | 1012.8 |
| 20260507022905 | 55 | 173 | 4.0 | 11.0 | 0.00 | 0.11 | 0.04 | 92 | 1012.6 |
| 20260507021906 | 55 | 214 | 5.0 | 11.0 | 0.00 | 0.11 | 0.04 | 92 | 1012.6 |
| 20260507020859 | 55 | 206 | 5.0 | 10.0 | 0.00 | 0.11 | 0.04 | 92 | 1012.6 |
| 20260507015849 | 55 | 189 | 4.0 | 8.0 | 0.00 | 0.11 | 0.04 | 92 | 1012.6 |
| 20260507014911 | 55 | 186 | 3.0 | 8.0 | 0.00 | 0.11 | 0.04 | 92 | 1012.7 |
| 20260507013840 | 56 | 189 | 3.0 | 11.0 | 0.00 | 0.11 | 0.04 | 92 | 1012.6 |
| 20260507012853 | 56 | 172 | 5.0 | 11.0 | 0.00 | 0.11 | 0.04 | 92 | 1012.6 |
| 20260507011835 | 56 | 211 | 4.0 | 10.0 | 0.03 | 0.11 | 0.04 | 91 | 1012.6 |
| 20260507010839 | 56 | 235 | 4.0 | 10.0 | 0.03 | 0.11 | 0.04 | 91 | 1012.5 |
| 20260507005902 | 56 | 0 | 3.0 | 8.0 | 0.06 | 0.10 | 0.03 | 91 | 1012.5 |
| 20260507004843 | 56 | 217 | 4.0 | 14.0 | 0.05 | 0.09 | 0.03 | 90 | 1012.7 |
| 20260507002728 | 57 | 185 | 6.0 | 11.0 | 0.00 | 0.07 | 0.01 | 90 | 1012.7 |
| 20260507001746 | 57 | 204 | 5.0 | 11.0 | 0.00 | 0.07 | 0.01 | 90 | 1012.6 |
| 20260507000730 | 57 | 230 | 4.0 | 11.0 | 0.00 | 0.07 | 0.01 | 90 | 1012.7 |
| 20260506235659 | 57 | 208 | 4.0 | 10.0 | 0.00 | 0.07 | 0.01 | 90 | 1012.6 |
| 20260506234718 | 57 | 165 | 4.0 | 10.0 | 0.00 | 0.07 | 0.01 | 91 | 1012.6 |
| 20260506232624 | 58 | 196 | 3.0 | 7.0 | 0.00 | 0.07 | 0.01 | 90 | 1012.7 |
| 20260506231642 | 58 | 146 | 3.0 | 7.0 | 0.04 | 0.07 | 0.01 | 90 | 1012.7 |
| 20260506230628 | 58 | 190 | 2.0 | 8.0 | 0.10 | 0.07 | 0.01 | 89 | 1012.8 |
| 20260506225603 | 59 | 187 | 2.0 | 8.0 | 0.00 | 0.06 | 0.00 | 88 | 1012.9 |
| 20260506224600 | 59 | 234 | 3.0 | 8.0 | 0.00 | 0.06 | 0.00 | 88 | 1012.9 |
| 20260506223622 | 59 | 177 | 4.0 | 8.0 | 0.00 | 0.06 | 0.00 | 88 | 1013.0 |
| 20260506221455 | 59 | 214 | 3.0 | 7.0 | 0.00 | 0.06 | 0.00 | 87 | 1013.0 |
| 20260506220455 | 59 | 188 | 3.0 | 6.0 | 0.00 | 0.06 | 0.00 | 87 | 1012.9 |
| 20260506214336 | 59 | 189 | 6.0 | 10.0 | 0.00 | 0.06 | 0.06 | 87 | 1012.8 |
| 20260506213203 | 59 | 198 | 5.0 | 9.0 | 0.00 | 0.06 | 0.06 | 87 | 1012.8 |
| 20260506210950 | 59 | 185 | 4.0 | 11.0 | 0.00 | 0.06 | 0.06 | 87 | 1013.0 |
| 20260506204820 | 59 | 181 | 6.0 | 12.0 | 0.00 | 0.06 | 0.06 | 86 | 1012.8 |
| 20260506203808 | 60 | 194 | 6.0 | 11.0 | 0.00 | 0.06 | 0.06 | 86 | 1012.9 |
| 20260506202741 | 60 | 171 | 6.0 | 8.0 | 0.00 | 0.06 | 0.06 | 86 | 1012.9 |
| 20260506194721 | 60 | 167 | 3.0 | 7.0 | 0.00 | 0.06 | 0.06 | 87 | 1012.4 |
| 20260506193726 | 60 | 165 | 3.0 | 7.0 | 0.00 | 0.06 | 0.06 | 87 | 1012.4 |
| 20260506192708 | 60 | 169 | 2.0 | 6.0 | 0.00 | 0.06 | 0.06 | 87 | 1012.2 |
| 20260506191706 | 60 | 159 | 3.0 | 6.0 | 0.00 | 0.06 | 0.06 | 86 | 1012.2 |
| 20260506190703 | 60 | 154 | 2.0 | 8.0 | 0.00 | 0.05 | 0.05 | 86 | 1012.1 |
| 20260506184514 | 60 | 210 | 5.0 | 12.0 | 0.00 | 0.05 | 0.05 | 86 | 1011.7 |
| 20260506183441 | 60 | 199 | 5.0 | 11.0 | 0.00 | 0.05 | 0.05 | 87 | 1011.6 |
| 20260506181309 | 60 | 236 | 4.0 | 9.0 | 0.00 | 0.05 | 0.05 | 87 | 1011.6 |
| 20260506180329 | 61 | 227 | 5.0 | 9.0 | 0.00 | 0.05 | 0.05 | 86 | 1011.6 |
| 20260506175326 | 60 | 243 | 4.0 | 10.0 | 0.00 | 0.05 | 0.05 | 86 | 1011.5 |
| 20260506174305 | 61 | 196 | 4.0 | 10.0 | 0.00 | 0.05 | 0.05 | 86 | 1011.5 |
| 20260506173304 | 61 | 219 | 3.0 | 7.0 | 0.00 | 0.05 | 0.05 | 85 | 1011.5 |
| 20260506172242 | 62 | 211 | 5.0 | 10.0 | 0.00 | 0.04 | 0.05 | 83 | 1011.5 |
| 20260506171236 | 62 | 212 | 5.0 | 11.0 | 0.00 | 0.04 | 0.04 | 83 | 1011.3 |
| 20260506170233 | 62 | 0 | 5.0 | 11.0 | 0.00 | 0.04 | 0.04 | 84 | 1011.4 |
| 20260506165203 | 62 | 151 | 2.0 | 7.0 | 0.00 | 0.04 | 0.04 | 85 | 1011.4 |
| 20260506163135 | 62 | 0 | 4.0 | 10.0 | 0.00 | 0.04 | 0.04 | 84 | 1011.4 |
| 20260506162157 | 62 | 205 | 5.0 | 10.0 | 0.00 | 0.04 | 0.04 | 83 | 1011.3 |
| 20260506161146 | 62 | 182 | 3.0 | 9.0 | 0.00 | 0.04 | 0.04 | 82 | 1011.3 |
| 20260506160114 | 62 | 238 | 5.0 | 9.0 | 0.00 | 0.04 | 0.04 | 82 | 1011.4 |
| 20260506155058 | 62 | 218 | 5.0 | 10.0 | 0.00 | 0.04 | 0.04 | 81 | 1011.3 |
| 20260506154108 | 62 | 194 | 5.0 | 10.0 | 0.00 | 0.04 | 0.04 | 82 | 1011.3 |
| 20260506153059 | 62 | 209 | 6.0 | 11.0 | 0.00 | 0.04 | 0.04 | 82 | 1011.4 |
| 20260506152047 | 62 | 229 | 5.0 | 11.0 | 0.00 | 0.04 | 0.04 | 82 | 1011.4 |
| 20260506145919 | 61 | 253 | 4.0 | 10.0 | 0.00 | 0.03 | 0.03 | 83 | 1011.3 |
| 20260506144907 | 62 | 223 | 4.0 | 10.0 | 0.00 | 0.03 | 0.03 | 81 | 1011.3 |
| 20260506143835 | 64 | 233 | 7.0 | 11.0 | 0.00 | 0.03 | 0.03 | 73 | 1011.4 |
| 20260506142825 | 65 | 234 | 5.0 | 15.0 | 0.00 | 0.03 | 0.03 | 66 | 1011.1 |
| 20260506141757 | 66 | 210 | 7.0 | 15.0 | 0.00 | 0.03 | 0.03 | 65 | 1011.0 |
| 20260506140804 | 66 | 208 | 5.0 | 12.0 | 0.00 | 0.03 | 0.03 | 65 | 1011.0 |
| 20260506135735 | 66 | 160 | 4.0 | 11.0 | 0.00 | 0.03 | 0.03 | 65 | 1011.2 |
| 20260506134729 | 66 | 209 | 5.0 | 15.0 | 0.00 | 0.03 | 0.03 | 65 | 1011.3 |
| 20260506133718 | 66 | 186 | 7.0 | 15.0 | 0.00 | 0.03 | 0.03 | 64 | 1011.4 |
| 20260506132730 | 67 | 172 | 7.0 | 13.0 | 0.00 | 0.03 | 0.03 | 64 | 1011.6 |
| 20260506130613 | 65 | 252 | 6.0 | 13.0 | 0.00 | 0.03 | 0.03 | 63 | 1011.8 |
| 20260506125551 | 65 | 207 | 6.0 | 13.0 | 0.00 | 0.03 | 0.03 | 63 | 1011.9 |
| 20260506124522 | 65 | 217 | 6.0 | 13.0 | 0.00 | 0.03 | 0.03 | 63 | 1011.9 |
| 20260506122355 | 66 | 208 | 7.0 | 17.0 | 0.00 | 0.03 | 0.03 | 65 | 1011.7 |
| 20260506120158 | 67 | 221 | 8.0 | 16.0 | 0.00 | 0.03 | 0.03 | 63 | 1011.6 |
| 20260506115203 | 67 | 219 | 9.0 | 15.0 | 0.00 | 0.03 | 0.03 | 64 | 1011.7 |
| 20260506114134 | 67 | 196 | 8.0 | 18.0 | 0.00 | 0.03 | 0.03 | 63 | 1011.8 |
| 20260506113126 | 67 | 217 | 6.0 | 18.0 | 0.00 | 0.03 | 0.03 | 64 | 1011.8 |
| 20260506112107 | 66 | 185 | 6.0 | 14.0 | 0.00 | 0.03 | 0.03 | 64 | 1011.9 |
| 20260506111100 | 66 | 203 | 6.0 | 14.0 | 0.00 | 0.03 | 0.03 | 63 | 1012.1 |
| 20260506110112 | 66 | 207 | 7.0 | 15.0 | 0.00 | 0.03 | 0.03 | 63 | 1012.0 |
| 20260506105104 | 66 | 202 | 8.0 | 19.0 | 0.00 | 0.03 | 0.03 | 60 | 1011.9 |
| 20260506104108 | 67 | 224 | 8.0 | 19.0 | 0.00 | 0.03 | 0.03 | 61 | 1011.9 |
| 20260506103038 | 66 | 176 | 5.0 | 17.0 | 0.00 | 0.03 | 0.03 | 64 | 1012.0 |
| 20260506102015 | 65 | 180 | 8.0 | 17.0 | 0.00 | 0.03 | 0.03 | 65 | 1012.3 |
| 20260506100942 | 65 | 200 | 6.0 | 13.0 | 0.00 | 0.03 | 0.03 | 67 | 1012.2 |
| 20260506095916 | 64 | 171 | 7.0 | 11.0 | 0.00 | 0.03 | 0.03 | 70 | 1012.1 |
| 20260506094906 | 63 | 220 | 9.0 | 21.0 | 0.00 | 0.03 | 0.03 | 69 | 1012.2 |
| 20260506093857 | 63 | 225 | 11.0 | 21.0 | 0.00 | 0.03 | 0.03 | 70 | 1012.2 |
| 20260506092841 | 63 | 196 | 10.0 | 17.0 | 0.00 | 0.03 | 0.03 | 69 | 1012.1 |
| 20260506091828 | 63 | 203 | 7.0 | 17.0 | 0.00 | 0.03 | 0.03 | 71 | 1012.2 |
| 20260506084518 | 61 | 163 | 5.0 | 11.0 | 0.00 | 0.03 | 0.03 | 77 | 1012.3 |
| 20260506083534 | 60 | 0 | 7.0 | 17.0 | 0.00 | 0.03 | 0.03 | 78 | 1012.3 |
| 20260506082543 | 60 | 188 | 6.0 | 17.0 | 0.00 | 0.03 | 0.03 | 79 | 1012.2 |
| 20260506081530 | 59 | 215 | 6.0 | 13.0 | 0.00 | 0.03 | 0.03 | 79 | 1012.4 |
| 20260506080528 | 59 | 190 | 4.0 | 11.0 | 0.00 | 0.03 | 0.03 | 80 | 1012.3 |
| 20260506071350 | 58 | 208 | 3.0 | 6.0 | 0.00 | 0.03 | 0.03 | 81 | 1012.4 |